Location: Newark
(54.6833°N, 25.2833°E)
Time: 04:47:14
(UTC+00:00)

AO-7 - Visible Passes

Search period start: 31 October 2020 00:00
Search period end: 10 November 2020 00:00
Orbit: 1439 x 1459 km, 101.8° (Epoch: 30 October)

Date Brightness Start Highest point End Pass type
(mag) Time Alt. Az. Time Alt. Az. Time Alt. Az.
31 Oct ? 01:41:54 10° NNE 01:49:43 43° E 01:57:29 10° SSE visible
31 Oct ? 03:34:43 10° NNE 03:42:53 64° WNW 03:51:02 10° SW visible
01 Nov ? 00:42:48 10° NE 00:48:47 21° E 00:54:45 10° SE visible
01 Nov ? 02:34:40 10° NNE 02:43:01 74° ESE 02:51:19 10° SSW visible
01 Nov ? 04:27:49 10° NNE 04:35:20 40° NW 04:42:50 10° WSW visible
01 Nov ? 15:42:01 10° W 15:44:54 12° WNW 15:47:49 10° NW visible
02 Nov ? 01:34:55 10° NNE 01:42:37 39° E 01:50:15 10° SSE visible
02 Nov ? 03:27:40 10° NNE 03:35:54 68° WNW 03:44:06 10° SW visible
03 Nov ? 00:35:58 10° NE 00:41:36 19° E 00:47:12 10° SE visible
03 Nov ? 02:27:39 10° NNE 02:35:58 69° ESE 02:44:14 10° S visible
03 Nov ? 04:20:46 10° NNE 04:28:24 43° NW 04:36:01 10° WSW visible
03 Nov ? 15:33:58 10° WSW 15:37:41 13° WNW 15:41:24 10° NW visible
04 Nov ? 01:27:57 10° NNE 01:35:29 36° E 01:42:59 10° SSE visible
04 Nov ? 03:20:38 10° NNE 03:28:54 73° WNW 03:37:09 10° SW visible
05 Nov ? 00:29:11 10° NE 00:34:24 18° E 00:39:36 10° ESE visible
05 Nov ? 02:20:38 10° NNE 02:28:54 65° ESE 02:37:08 10° S visible
05 Nov ? 04:13:43 10° NNE 04:21:26 45° NW 04:29:10 10° WSW visible
05 Nov ? 15:26:06 10° WSW 15:30:27 15° W 15:34:50 10° NW visible
06 Nov ? 01:21:00 10° NNE 01:28:22 34° E 01:35:42 10° SSE visible
06 Nov ? 03:13:35 10° NNE 03:21:54 78° WNW 03:30:11 10° SSW visible
07 Nov ? 00:22:27 10° NE 00:27:12 16° E 00:31:55 10° ESE visible
07 Nov ? 02:13:37 10° NNE 02:21:50 60° ESE 02:30:01 10° S visible
07 Nov ? 04:06:40 10° NNE 04:14:30 48° NW 04:22:19 10° WSW visible
07 Nov ? 15:18:22 10° WSW 15:23:15 17° W 15:28:09 10° NW visible
08 Nov ? 01:14:03 10° NNE 01:21:14 31° E 01:28:22 10° SSE visible
08 Nov ? 03:06:32 10° NNE 03:14:53 83° WNW 03:23:12 10° SSW visible
09 Nov ? 00:15:48 10° NE 00:19:59 14° E 00:24:09 10° ESE visible
09 Nov ? 02:06:37 10° NNE 02:14:46 56° ESE 02:22:53 10° S visible
09 Nov ? 03:59:37 10° NNE 04:07:32 51° NW 04:15:27 10° SW visible
09 Nov ? 15:10:43 10° SW 15:16:02 18° W 15:21:24 10° NW visible
